#timestamp,LO_Frequency,Hit,StdDev 
1648681215.1,286046997.0,N
1648681235.9,286046997.1,N
1648681255.7,286046997.2,N
1648681275.6,286046997.2,N
1648681295.4,286046997.1,N
1648681315.2,286046995.0,Y
1648681335.1,286046996.7,P
1648681336.0,286046996.7,N
1648681355.8,286046997.7,N
1648681375.7,286046994.9,Y
1648681395.5,286046998.7,P
1648681415.3,286046998.9,N
1648681435.2,286046997.1,P
1648681455.0,286046997.3,Y
1648681455.9,286046997.3,P
1648681475.8,286046998.3,P
1648681495.6,286047000.9,N
1648681515.4,286047002.5,N
1648681535.3,286047002.1,N
1648681555.1,286047001.5,N
1648681575.8,286047002.8,N
1648681595.7,286046999.7,N
1648681615.5,286047002.5,N
1648681635.4,286047003.8,N
1648681655.2,286047001.8,N
1648681675.0,286047003.7,N
1648681675.9,286047003.7,N
1648681695.8,286047004.3,N
1648681715.6,286047003.8,N
1648681735.4,286047003.4,N
1648681755.3,286047005.9,N
1648681775.1,286047005.3,N
1648681795.9,286047003.5,N
1648681815.7,286047003.6,N
1648681835.5,286047005.6,N
1648681855.4,286047005.9,N
1648681875.2,286047005.8,N
1648681895.0,286047005.6,N
1648681895.9,286047005.6,N
1648681915.8,286047005.2,N
1648681935.6,286047005.3,N
1648681955.5,286047005.5,N
1648681975.3,286047005.9,N
1648681995.1,286047007.6,Y
1648682015.9,286047003.2,P
1648682035.7,286047003.2,P
1648682055.6,286047001.5,P
1648682075.4,286047001.3,N
1648682095.2,286047000.3,N
1648682115.1,286047002.2,N
1648682116.0,286047002.2,N
1648682135.8,286047001.1,N
1648682155.6,286046999.7,N
1648682175.5,286046999.7,N
1648682195.3,286047001.1,N
1648682215.2,286047000.9,N
1648682235.9,286047000.5,N
1648682255.7,286047002.3,N
1648682275.6,286047001.5,N
1648682295.4,286047002.0,N
1648682315.3,286047000.3,N
1648682335.1,286047000.2,N
1648682336.0,286047000.2,N
1648682355.8,286046999.7,N
1648682375.7,286047000.4,N
1648682395.5,286047000.5,N
1648682415.3,286047001.2,N
1648682435.2,286046998.4,N
1648682455.0,286047001.2,N
1648682455.9,286047001.2,N
1648682475.8,286047001.0,N
1648682495.6,286047001.0,N
1648682515.4,286047000.9,N
1648682535.3,286047000.9,N
1648682555.1,286047001.2,N
1648682575.9,286046998.1,N
1648682595.7,286047000.0,N
1648682615.5,286047002.4,N
1648682635.4,286047002.4,N
1648682655.2,286047001.5,N
1648682675.0,286047001.7,N
1648682675.9,286047001.7,N
1648682695.8,286047001.7,N
1648682715.6,286047001.7,N
1648682735.5,286047003.9,Y
1648682755.3,286047002.1,P
1648682775.1,286047002.3,P
1648682795.9,286047002.0,P
1648682815.7,286047002.0,Y
1648682835.6,286047000.3,P
1648682855.4,286046999.3,N
1648682875.2,286046999.4,N
1648682895.1,286046998.2,N
1648682896.0,286046998.2,N
1648682915.8,286046998.8,N
1648682935.6,286046998.9,N
1648682955.5,286046996.7,N
1648682975.3,286046996.5,N
1648682995.2,286046999.4,N
1648683015.9,286046999.1,N
1648683035.7,286046996.8,N
1648683055.6,286046999.0,N
1648683075.4,286046998.5,N
1648683095.2,286046998.9,N
1648683115.1,286046999.3,N
1648683116.0,286046999.3,N
1648683135.8,286046998.7,N
1648683155.7,286046998.8,N
1648683175.5,286046998.5,N
1648683195.3,286047001.2,N
1648683215.2,286046999.2,N
1648683235.0,286046998.2,N
1648683235.9,286046998.2,N
1648683255.7,286046998.9,N
1648683275.6,286046998.8,N
1648683295.4,286046996.7,N
1648683315.3,286046997.2,N
1648683335.1,286046996.7,N
1648683336.0,286046996.7,N
1648683355.8,286046997.1,N
1648683375.7,286046996.5,Y
1648683395.5,286047000.2,P
1648683415.3,286047000.2,N
1648683435.2,286047002.8,P
1648683455.0,286046999.7,N
1648683455.9,286046999.7,N
1648683475.8,286047000.5,N
1648683495.6,286047001.8,N
1648683515.4,286047002.6,N
1648683535.3,286047000.6,N
1648683555.1,286046998.2,N
1648683575.9,286046999.4,N
1648683595.7,286046998.4,N
1648683615.5,286047001.2,N
1648683635.4,286047001.0,N
1648683655.2,286047000.7,N
1648683675.0,286046999.9,N
1648683675.9,286046999.9,N
1648683695.8,286047000.5,N
1648683715.6,286046999.7,N
1648683735.4,286047002.4,N
1648683755.3,286047000.0,N
1648683775.1,286047002.6,N
1648683795.9,286047004.1,Y
1648683815.7,286047002.5,P
1648683835.5,286047002.4,N
1648683855.4,286046999.8,N
1648683875.2,286046999.9,N
1648683895.1,286047000.9,N
1648683896.0,286047000.9,N
1648683915.8,286047002.4,N
1648683935.6,286047000.0,N
1648683955.5,286047000.3,N
1648683975.3,286047000.7,N
1648683995.1,286047002.5,N
1648684015.9,286047001.7,N
1648684035.7,286047001.7,N
1648684055.6,286047003.8,Y
1648684075.4,286046999.9,P
1648684095.2,286047000.5,N
1648684115.1,286047000.3,N
1648684116.0,286047000.3,N
1648684135.8,286047000.1,N
1648684155.6,286047000.4,N
1648684175.5,286047002.7,Y
1648684195.3,286047002.4,P
1648684215.2,286047000.1,N
1648684235.9,286047002.7,N
1648684255.7,286047002.7,N
1648684275.6,286047000.0,N
1648684295.4,286047002.8,N
1648684315.2,286047000.3,N
1648684335.1,286047002.3,N
1648684336.0,286047002.3,N
1648684355.8,286046999.8,N
1648684375.7,286046999.7,N
1648684395.5,286047000.9,N
1648684415.3,286046999.8,N
1648684435.2,286047000.9,N
1648684455.0,286047000.3,N
1648684455.9,286047000.3,N
1648684475.8,286046999.9,N
1648684495.6,286047002.4,N
1648684515.4,286047001.6,N
1648684535.3,286047000.1,N
1648684555.1,286047002.4,N
1648684575.8,286047002.4,N
1648684595.7,286047000.3,N
1648684615.5,286047002.2,N
1648684635.4,286046999.7,N
1648684655.2,286047002.3,N
1648684675.0,286047002.3,N
1648684675.9,286047002.3,N
1648684695.8,286047002.2,N
1648684715.6,286047001.4,N
1648684735.4,286047001.3,N
1648684755.3,286047004.3,Y
1648684775.1,286047001.6,P
1648684795.9,286047003.5,P
